Location: Newark
(50.9000°N, 14.8333°E)
Time: 18:54:54
(UTC+00:00)

N. Korean satellite - Pass Details

Date: 05 November 2020
Orbit: 453 x 503 km, 97.2° (Epoch: 04 December)

Event Time Altitude Azimuth Distance (km) Brightness Sun altitude
Rises 16:47:48 0° 212° (SSW) 2,506 10.8 -12.9°
Reaches altitude 10° 16:50:48 10° 241° (WSW) 1,625 10.4 -13.3°
Maximum altitude 16:52:29 13° 271° (W) 1,445 10.3 -13.6°
Drops below altitude 10° 16:54:10 10° 300° (WNW) 1,620 10.0 -13.9°
Sets 16:57:10 0° 329° (NNW) 2,493 10.5 -14.3°
